<?xml version="1.0"?>
<gpx xmlns="http://www.topografix.com/GPX/1/1" xmlns:xsi="http://www.w3.org/2001/XMLSchema-instance" version="1.1" creator="GPX RubyGem 1.0.0 -- http://dougfales.github.io/gpx/" xsi:schemaLocation="http://www.topografix.com/GPX/1/1 http://www.topografix.com/GPX/1/1/gpx.xsd">
  <metadata>
    <name/>
    <time>2026-05-07T23:44:32+00:00</time>
    <bound minlat="90.0" minlon="180.0" maxlat="-90.0" maxlon="-180.0"/>
  </metadata>
  <trk>
    <name/>
    <trkseg>
      <trkpt lat="47.598749" lon="13.463827">
        <time>1970-01-01T00:00:00+00:00</time>
        <ele>873.0</ele>
      </trkpt>
      <trkpt lat="47.598778" lon="13.463781">
        <time>1970-01-01T00:00:00+00:00</time>
        <ele>874.0</ele>
      </trkpt>
      <trkpt lat="47.598922" lon="13.463616">
        <time>1970-01-01T00:00:00+00:00</time>
        <ele>878.0</ele>
      </trkpt>
      <trkpt lat="47.599018" lon="13.463457">
        <time>1970-01-01T00:00:00+00:00</time>
        <ele>879.0</ele>
      </trkpt>
      <trkpt lat="47.599247" lon="13.463016">
        <time>1970-01-01T00:00:00+00:00</time>
        <ele>881.0</ele>
      </trkpt>
      <trkpt lat="47.599627" lon="13.462428">
        <time>1970-01-01T00:00:00+00:00</time>
        <ele>888.0</ele>
      </trkpt>
      <trkpt lat="47.599782" lon="13.462107">
        <time>1970-01-01T00:00:00+00:00</time>
        <ele>893.0</ele>
      </trkpt>
      <trkpt lat="47.599973" lon="13.461852">
        <time>1970-01-01T00:00:00+00:00</time>
        <ele>899.0</ele>
      </trkpt>
      <trkpt lat="47.600139" lon="13.461747">
        <time>1970-01-01T00:00:00+00:00</time>
        <ele>903.0</ele>
      </trkpt>
      <trkpt lat="47.60044" lon="13.461614">
        <time>1970-01-01T00:00:00+00:00</time>
        <ele>903.0</ele>
      </trkpt>
      <trkpt lat="47.600587" lon="13.461461">
        <time>1970-01-01T00:00:00+00:00</time>
        <ele>901.0</ele>
      </trkpt>
      <trkpt lat="47.600791" lon="13.461143">
        <time>1970-01-01T00:00:00+00:00</time>
        <ele>904.0</ele>
      </trkpt>
      <trkpt lat="47.600978" lon="13.460764">
        <time>1970-01-01T00:00:00+00:00</time>
        <ele>909.0</ele>
      </trkpt>
      <trkpt lat="47.601174" lon="13.460231">
        <time>1970-01-01T00:00:00+00:00</time>
        <ele>913.0</ele>
      </trkpt>
      <trkpt lat="47.601293" lon="13.459955">
        <time>1970-01-01T00:00:00+00:00</time>
        <ele>916.0</ele>
      </trkpt>
      <trkpt lat="47.601413" lon="13.459528">
        <time>1970-01-01T00:00:00+00:00</time>
        <ele>921.0</ele>
      </trkpt>
      <trkpt lat="47.601553" lon="13.459243">
        <time>1970-01-01T00:00:00+00:00</time>
        <ele>926.0</ele>
      </trkpt>
      <trkpt lat="47.6018" lon="13.458886">
        <time>1970-01-01T00:00:00+00:00</time>
        <ele>933.0</ele>
      </trkpt>
      <trkpt lat="47.602004" lon="13.458382">
        <time>1970-01-01T00:00:00+00:00</time>
        <ele>936.0</ele>
      </trkpt>
      <trkpt lat="47.602031" lon="13.458329">
        <time>1970-01-01T00:00:00+00:00</time>
        <ele>937.0</ele>
      </trkpt>
      <trkpt lat="47.602325" lon="13.458022">
        <time>1970-01-01T00:00:00+00:00</time>
        <ele>947.0</ele>
      </trkpt>
      <trkpt lat="47.602655" lon="13.457556">
        <time>1970-01-01T00:00:00+00:00</time>
        <ele>951.0</ele>
      </trkpt>
      <trkpt lat="47.602875" lon="13.456883">
        <time>1970-01-01T00:00:00+00:00</time>
        <ele>953.0</ele>
      </trkpt>
      <trkpt lat="47.603003" lon="13.456698">
        <time>1970-01-01T00:00:00+00:00</time>
        <ele>956.0</ele>
      </trkpt>
      <trkpt lat="47.603129" lon="13.456423">
        <time>1970-01-01T00:00:00+00:00</time>
        <ele>954.0</ele>
      </trkpt>
      <trkpt lat="47.60322" lon="13.455933">
        <time>1970-01-01T00:00:00+00:00</time>
        <ele>952.0</ele>
      </trkpt>
      <trkpt lat="47.603268" lon="13.455772">
        <time>1970-01-01T00:00:00+00:00</time>
        <ele>956.0</ele>
      </trkpt>
      <trkpt lat="47.603346" lon="13.455607">
        <time>1970-01-01T00:00:00+00:00</time>
        <ele>961.0</ele>
      </trkpt>
      <trkpt lat="47.603412" lon="13.455498">
        <time>1970-01-01T00:00:00+00:00</time>
        <ele>964.0</ele>
      </trkpt>
      <trkpt lat="47.603524" lon="13.455385">
        <time>1970-01-01T00:00:00+00:00</time>
        <ele>965.0</ele>
      </trkpt>
      <trkpt lat="47.603682" lon="13.455245">
        <time>1970-01-01T00:00:00+00:00</time>
        <ele>965.0</ele>
      </trkpt>
      <trkpt lat="47.603859" lon="13.455134">
        <time>1970-01-01T00:00:00+00:00</time>
        <ele>966.0</ele>
      </trkpt>
      <trkpt lat="47.60436" lon="13.45506">
        <time>1970-01-01T00:00:00+00:00</time>
        <ele>976.0</ele>
      </trkpt>
      <trkpt lat="47.604595" lon="13.455161">
        <time>1970-01-01T00:00:00+00:00</time>
        <ele>986.0</ele>
      </trkpt>
      <trkpt lat="47.60484" lon="13.4551">
        <time>1970-01-01T00:00:00+00:00</time>
        <ele>992.0</ele>
      </trkpt>
      <trkpt lat="47.605025" lon="13.455005">
        <time>1970-01-01T00:00:00+00:00</time>
        <ele>994.0</ele>
      </trkpt>
      <trkpt lat="47.605205" lon="13.454873">
        <time>1970-01-01T00:00:00+00:00</time>
        <ele>993.0</ele>
      </trkpt>
      <trkpt lat="47.605558" lon="13.454609">
        <time>1970-01-01T00:00:00+00:00</time>
        <ele>992.0</ele>
      </trkpt>
      <trkpt lat="47.606219" lon="13.454304">
        <time>1970-01-01T00:00:00+00:00</time>
        <ele>998.0</ele>
      </trkpt>
      <trkpt lat="47.60645" lon="13.454145">
        <time>1970-01-01T00:00:00+00:00</time>
        <ele>999.0</ele>
      </trkpt>
      <trkpt lat="47.606712" lon="13.454056">
        <time>1970-01-01T00:00:00+00:00</time>
        <ele>1001.0</ele>
      </trkpt>
      <trkpt lat="47.606939" lon="13.454021">
        <time>1970-01-01T00:00:00+00:00</time>
        <ele>1005.0</ele>
      </trkpt>
      <trkpt lat="47.607218" lon="13.454022">
        <time>1970-01-01T00:00:00+00:00</time>
        <ele>1010.0</ele>
      </trkpt>
      <trkpt lat="47.607245" lon="13.454051">
        <time>1970-01-01T00:00:00+00:00</time>
        <ele>1011.0</ele>
      </trkpt>
      <trkpt lat="47.607252" lon="13.454091">
        <time>1970-01-01T00:00:00+00:00</time>
        <ele>1013.0</ele>
      </trkpt>
      <trkpt lat="47.607224" lon="13.454151">
        <time>1970-01-01T00:00:00+00:00</time>
        <ele>1015.0</ele>
      </trkpt>
      <trkpt lat="47.606987" lon="13.454239">
        <time>1970-01-01T00:00:00+00:00</time>
        <ele>1014.0</ele>
      </trkpt>
      <trkpt lat="47.606807" lon="13.454362">
        <time>1970-01-01T00:00:00+00:00</time>
        <ele>1013.0</ele>
      </trkpt>
      <trkpt lat="47.60665" lon="13.454509">
        <time>1970-01-01T00:00:00+00:00</time>
        <ele>1012.0</ele>
      </trkpt>
      <trkpt lat="47.606459" lon="13.454647">
        <time>1970-01-01T00:00:00+00:00</time>
        <ele>1011.0</ele>
      </trkpt>
      <trkpt lat="47.606415" lon="13.454706">
        <time>1970-01-01T00:00:00+00:00</time>
        <ele>1012.0</ele>
      </trkpt>
      <trkpt lat="47.606414" lon="13.454788">
        <time>1970-01-01T00:00:00+00:00</time>
        <ele>1015.0</ele>
      </trkpt>
      <trkpt lat="47.606457" lon="13.454817">
        <time>1970-01-01T00:00:00+00:00</time>
        <ele>1018.0</ele>
      </trkpt>
      <trkpt lat="47.606651" lon="13.454699">
        <time>1970-01-01T00:00:00+00:00</time>
        <ele>1019.0</ele>
      </trkpt>
      <trkpt lat="47.606882" lon="13.454611">
        <time>1970-01-01T00:00:00+00:00</time>
        <ele>1023.0</ele>
      </trkpt>
      <trkpt lat="47.606992" lon="13.454599">
        <time>1970-01-01T00:00:00+00:00</time>
        <ele>1025.0</ele>
      </trkpt>
      <trkpt lat="47.608023" lon="13.454843">
        <time>1970-01-01T00:00:00+00:00</time>
        <ele>1048.0</ele>
      </trkpt>
      <trkpt lat="47.608594" lon="13.454773">
        <time>1970-01-01T00:00:00+00:00</time>
        <ele>1049.0</ele>
      </trkpt>
      <trkpt lat="47.608795" lon="13.454798">
        <time>1970-01-01T00:00:00+00:00</time>
        <ele>1052.0</ele>
      </trkpt>
      <trkpt lat="47.609159" lon="13.454459">
        <time>1970-01-01T00:00:00+00:00</time>
        <ele>1055.0</ele>
      </trkpt>
      <trkpt lat="47.609608" lon="13.454305">
        <time>1970-01-01T00:00:00+00:00</time>
        <ele>1063.0</ele>
      </trkpt>
      <trkpt lat="47.609733" lon="13.454227">
        <time>1970-01-01T00:00:00+00:00</time>
        <ele>1064.0</ele>
      </trkpt>
      <trkpt lat="47.609893" lon="13.454033">
        <time>1970-01-01T00:00:00+00:00</time>
        <ele>1062.0</ele>
      </trkpt>
      <trkpt lat="47.609955" lon="13.454016">
        <time>1970-01-01T00:00:00+00:00</time>
        <ele>1063.0</ele>
      </trkpt>
      <trkpt lat="47.610012" lon="13.454045">
        <time>1970-01-01T00:00:00+00:00</time>
        <ele>1065.0</ele>
      </trkpt>
      <trkpt lat="47.610031" lon="13.454119">
        <time>1970-01-01T00:00:00+00:00</time>
        <ele>1067.0</ele>
      </trkpt>
      <trkpt lat="47.610031" lon="13.45422">
        <time>1970-01-01T00:00:00+00:00</time>
        <ele>1070.0</ele>
      </trkpt>
      <trkpt lat="47.609883" lon="13.454532">
        <time>1970-01-01T00:00:00+00:00</time>
        <ele>1074.0</ele>
      </trkpt>
      <trkpt lat="47.60969" lon="13.454782">
        <time>1970-01-01T00:00:00+00:00</time>
        <ele>1074.0</ele>
      </trkpt>
      <trkpt lat="47.609671" lon="13.454824">
        <time>1970-01-01T00:00:00+00:00</time>
        <ele>1075.0</ele>
      </trkpt>
      <trkpt lat="47.609679" lon="13.454878">
        <time>1970-01-01T00:00:00+00:00</time>
        <ele>1076.0</ele>
      </trkpt>
      <trkpt lat="47.609705" lon="13.454896">
        <time>1970-01-01T00:00:00+00:00</time>
        <ele>1078.0</ele>
      </trkpt>
      <trkpt lat="47.609745" lon="13.454884">
        <time>1970-01-01T00:00:00+00:00</time>
        <ele>1079.0</ele>
      </trkpt>
      <trkpt lat="47.609893" lon="13.454743">
        <time>1970-01-01T00:00:00+00:00</time>
        <ele>1080.0</ele>
      </trkpt>
      <trkpt lat="47.610173" lon="13.454625">
        <time>1970-01-01T00:00:00+00:00</time>
        <ele>1085.0</ele>
      </trkpt>
      <trkpt lat="47.610448" lon="13.454397">
        <time>1970-01-01T00:00:00+00:00</time>
        <ele>1089.0</ele>
      </trkpt>
      <trkpt lat="47.610957" lon="13.454228">
        <time>1970-01-01T00:00:00+00:00</time>
        <ele>1099.0</ele>
      </trkpt>
      <trkpt lat="47.611081" lon="13.454223">
        <time>1970-01-01T00:00:00+00:00</time>
        <ele>1102.0</ele>
      </trkpt>
      <trkpt lat="47.611612" lon="13.454431">
        <time>1970-01-01T00:00:00+00:00</time>
        <ele>1108.0</ele>
      </trkpt>
      <trkpt lat="47.612075" lon="13.454482">
        <time>1970-01-01T00:00:00+00:00</time>
        <ele>1113.0</ele>
      </trkpt>
      <trkpt lat="47.612425" lon="13.454271">
        <time>1970-01-01T00:00:00+00:00</time>
        <ele>1118.0</ele>
      </trkpt>
      <trkpt lat="47.612824" lon="13.453968">
        <time>1970-01-01T00:00:00+00:00</time>
        <ele>1121.0</ele>
      </trkpt>
      <trkpt lat="47.613132" lon="13.453811">
        <time>1970-01-01T00:00:00+00:00</time>
        <ele>1125.0</ele>
      </trkpt>
      <trkpt lat="47.613417" lon="13.453619">
        <time>1970-01-01T00:00:00+00:00</time>
        <ele>1130.0</ele>
      </trkpt>
      <trkpt lat="47.613684" lon="13.453328">
        <time>1970-01-01T00:00:00+00:00</time>
        <ele>1135.0</ele>
      </trkpt>
      <trkpt lat="47.614045" lon="13.453174">
        <time>1970-01-01T00:00:00+00:00</time>
        <ele>1143.0</ele>
      </trkpt>
      <trkpt lat="47.614239" lon="13.452966">
        <time>1970-01-01T00:00:00+00:00</time>
        <ele>1144.0</ele>
      </trkpt>
      <trkpt lat="47.614466" lon="13.452857">
        <time>1970-01-01T00:00:00+00:00</time>
        <ele>1149.0</ele>
      </trkpt>
      <trkpt lat="47.614828" lon="13.452422">
        <time>1970-01-01T00:00:00+00:00</time>
        <ele>1154.0</ele>
      </trkpt>
      <trkpt lat="47.615047" lon="13.4522">
        <time>1970-01-01T00:00:00+00:00</time>
        <ele>1156.0</ele>
      </trkpt>
      <trkpt lat="47.61538" lon="13.452022">
        <time>1970-01-01T00:00:00+00:00</time>
        <ele>1161.0</ele>
      </trkpt>
      <trkpt lat="47.615483" lon="13.451913">
        <time>1970-01-01T00:00:00+00:00</time>
        <ele>1161.0</ele>
      </trkpt>
      <trkpt lat="47.615569" lon="13.451749">
        <time>1970-01-01T00:00:00+00:00</time>
        <ele>1160.0</ele>
      </trkpt>
      <trkpt lat="47.615617" lon="13.4517">
        <time>1970-01-01T00:00:00+00:00</time>
        <ele>1161.0</ele>
      </trkpt>
      <trkpt lat="47.615656" lon="13.451708">
        <time>1970-01-01T00:00:00+00:00</time>
        <ele>1162.0</ele>
      </trkpt>
      <trkpt lat="47.615687" lon="13.451756">
        <time>1970-01-01T00:00:00+00:00</time>
        <ele>1164.0</ele>
      </trkpt>
      <trkpt lat="47.615695" lon="13.45182">
        <time>1970-01-01T00:00:00+00:00</time>
        <ele>1165.0</ele>
      </trkpt>
      <trkpt lat="47.615565" lon="13.452635">
        <time>1970-01-01T00:00:00+00:00</time>
        <ele>1177.0</ele>
      </trkpt>
      <trkpt lat="47.615434" lon="13.452879">
        <time>1970-01-01T00:00:00+00:00</time>
        <ele>1177.0</ele>
      </trkpt>
      <trkpt lat="47.615338" lon="13.453149">
        <time>1970-01-01T00:00:00+00:00</time>
        <ele>1179.0</ele>
      </trkpt>
      <trkpt lat="47.615338" lon="13.453219">
        <time>1970-01-01T00:00:00+00:00</time>
        <ele>1180.0</ele>
      </trkpt>
      <trkpt lat="47.615356" lon="13.453267">
        <time>1970-01-01T00:00:00+00:00</time>
        <ele>1181.0</ele>
      </trkpt>
      <trkpt lat="47.615393" lon="13.453285">
        <time>1970-01-01T00:00:00+00:00</time>
        <ele>1182.0</ele>
      </trkpt>
      <trkpt lat="47.615432" lon="13.453272">
        <time>1970-01-01T00:00:00+00:00</time>
        <ele>1182.0</ele>
      </trkpt>
      <trkpt lat="47.615678" lon="13.453011">
        <time>1970-01-01T00:00:00+00:00</time>
        <ele>1185.0</ele>
      </trkpt>
      <trkpt lat="47.615987" lon="13.452738">
        <time>1970-01-01T00:00:00+00:00</time>
        <ele>1193.0</ele>
      </trkpt>
      <trkpt lat="47.616107" lon="13.45257">
        <time>1970-01-01T00:00:00+00:00</time>
        <ele>1195.0</ele>
      </trkpt>
      <trkpt lat="47.616177" lon="13.452412">
        <time>1970-01-01T00:00:00+00:00</time>
        <ele>1195.0</ele>
      </trkpt>
      <trkpt lat="47.616311" lon="13.452235">
        <time>1970-01-01T00:00:00+00:00</time>
        <ele>1198.0</ele>
      </trkpt>
      <trkpt lat="47.616377" lon="13.452097">
        <time>1970-01-01T00:00:00+00:00</time>
        <ele>1199.0</ele>
      </trkpt>
      <trkpt lat="47.616478" lon="13.45174">
        <time>1970-01-01T00:00:00+00:00</time>
        <ele>1199.0</ele>
      </trkpt>
      <trkpt lat="47.616723" lon="13.451422">
        <time>1970-01-01T00:00:00+00:00</time>
        <ele>1208.0</ele>
      </trkpt>
      <trkpt lat="47.616772" lon="13.451314">
        <time>1970-01-01T00:00:00+00:00</time>
        <ele>1208.0</ele>
      </trkpt>
      <trkpt lat="47.616856" lon="13.451043">
        <time>1970-01-01T00:00:00+00:00</time>
        <ele>1206.0</ele>
      </trkpt>
      <trkpt lat="47.616889" lon="13.450989">
        <time>1970-01-01T00:00:00+00:00</time>
        <ele>1206.0</ele>
      </trkpt>
      <trkpt lat="47.616917" lon="13.450978">
        <time>1970-01-01T00:00:00+00:00</time>
        <ele>1207.0</ele>
      </trkpt>
      <trkpt lat="47.61695" lon="13.451014">
        <time>1970-01-01T00:00:00+00:00</time>
        <ele>1209.0</ele>
      </trkpt>
      <trkpt lat="47.616957" lon="13.451093">
        <time>1970-01-01T00:00:00+00:00</time>
        <ele>1211.0</ele>
      </trkpt>
      <trkpt lat="47.616919" lon="13.451334">
        <time>1970-01-01T00:00:00+00:00</time>
        <ele>1213.0</ele>
      </trkpt>
      <trkpt lat="47.616923" lon="13.451403">
        <time>1970-01-01T00:00:00+00:00</time>
        <ele>1215.0</ele>
      </trkpt>
      <trkpt lat="47.61698" lon="13.451642">
        <time>1970-01-01T00:00:00+00:00</time>
        <ele>1221.0</ele>
      </trkpt>
      <trkpt lat="47.616973" lon="13.451692">
        <time>1970-01-01T00:00:00+00:00</time>
        <ele>1221.0</ele>
      </trkpt>
      <trkpt lat="47.616763" lon="13.452161">
        <time>1970-01-01T00:00:00+00:00</time>
        <ele>1220.0</ele>
      </trkpt>
      <trkpt lat="47.616757" lon="13.452218">
        <time>1970-01-01T00:00:00+00:00</time>
        <ele>1221.0</ele>
      </trkpt>
      <trkpt lat="47.616774" lon="13.452242">
        <time>1970-01-01T00:00:00+00:00</time>
        <ele>1222.0</ele>
      </trkpt>
      <trkpt lat="47.616822" lon="13.452232">
        <time>1970-01-01T00:00:00+00:00</time>
        <ele>1224.0</ele>
      </trkpt>
      <trkpt lat="47.616934" lon="13.452008">
        <time>1970-01-01T00:00:00+00:00</time>
        <ele>1224.0</ele>
      </trkpt>
      <trkpt lat="47.617059" lon="13.451886">
        <time>1970-01-01T00:00:00+00:00</time>
        <ele>1228.0</ele>
      </trkpt>
      <trkpt lat="47.617173" lon="13.451815">
        <time>1970-01-01T00:00:00+00:00</time>
        <ele>1232.0</ele>
      </trkpt>
      <trkpt lat="47.617323" lon="13.45176">
        <time>1970-01-01T00:00:00+00:00</time>
        <ele>1236.0</ele>
      </trkpt>
      <trkpt lat="47.617495" lon="13.451603">
        <time>1970-01-01T00:00:00+00:00</time>
        <ele>1237.0</ele>
      </trkpt>
      <trkpt lat="47.617785" lon="13.451438">
        <time>1970-01-01T00:00:00+00:00</time>
        <ele>1244.0</ele>
      </trkpt>
      <trkpt lat="47.617847" lon="13.451408">
        <time>1970-01-01T00:00:00+00:00</time>
        <ele>1245.0</ele>
      </trkpt>
      <trkpt lat="47.617997" lon="13.451353">
        <time>1970-01-01T00:00:00+00:00</time>
        <ele>1246.0</ele>
      </trkpt>
      <trkpt lat="47.617997" lon="13.451353">
        <time>1970-01-01T00:00:00+00:00</time>
        <ele>1246.0</ele>
      </trkpt>
      <trkpt lat="47.617847" lon="13.451408">
        <time>1970-01-01T00:00:00+00:00</time>
        <ele>1245.0</ele>
      </trkpt>
      <trkpt lat="47.617785" lon="13.451438">
        <time>1970-01-01T00:00:00+00:00</time>
        <ele>1244.0</ele>
      </trkpt>
      <trkpt lat="47.617495" lon="13.451603">
        <time>1970-01-01T00:00:00+00:00</time>
        <ele>1237.0</ele>
      </trkpt>
      <trkpt lat="47.617323" lon="13.45176">
        <time>1970-01-01T00:00:00+00:00</time>
        <ele>1236.0</ele>
      </trkpt>
      <trkpt lat="47.617173" lon="13.451815">
        <time>1970-01-01T00:00:00+00:00</time>
        <ele>1232.0</ele>
      </trkpt>
      <trkpt lat="47.617059" lon="13.451886">
        <time>1970-01-01T00:00:00+00:00</time>
        <ele>1228.0</ele>
      </trkpt>
      <trkpt lat="47.616934" lon="13.452008">
        <time>1970-01-01T00:00:00+00:00</time>
        <ele>1224.0</ele>
      </trkpt>
      <trkpt lat="47.616822" lon="13.452232">
        <time>1970-01-01T00:00:00+00:00</time>
        <ele>1224.0</ele>
      </trkpt>
      <trkpt lat="47.616774" lon="13.452242">
        <time>1970-01-01T00:00:00+00:00</time>
        <ele>1222.0</ele>
      </trkpt>
      <trkpt lat="47.616757" lon="13.452218">
        <time>1970-01-01T00:00:00+00:00</time>
        <ele>1221.0</ele>
      </trkpt>
      <trkpt lat="47.616763" lon="13.452161">
        <time>1970-01-01T00:00:00+00:00</time>
        <ele>1220.0</ele>
      </trkpt>
      <trkpt lat="47.616973" lon="13.451692">
        <time>1970-01-01T00:00:00+00:00</time>
        <ele>1221.0</ele>
      </trkpt>
      <trkpt lat="47.61698" lon="13.451642">
        <time>1970-01-01T00:00:00+00:00</time>
        <ele>1221.0</ele>
      </trkpt>
      <trkpt lat="47.616923" lon="13.451403">
        <time>1970-01-01T00:00:00+00:00</time>
        <ele>1215.0</ele>
      </trkpt>
      <trkpt lat="47.616919" lon="13.451334">
        <time>1970-01-01T00:00:00+00:00</time>
        <ele>1213.0</ele>
      </trkpt>
      <trkpt lat="47.616957" lon="13.451093">
        <time>1970-01-01T00:00:00+00:00</time>
        <ele>1211.0</ele>
      </trkpt>
      <trkpt lat="47.61695" lon="13.451014">
        <time>1970-01-01T00:00:00+00:00</time>
        <ele>1209.0</ele>
      </trkpt>
      <trkpt lat="47.616917" lon="13.450978">
        <time>1970-01-01T00:00:00+00:00</time>
        <ele>1207.0</ele>
      </trkpt>
      <trkpt lat="47.616889" lon="13.450989">
        <time>1970-01-01T00:00:00+00:00</time>
        <ele>1206.0</ele>
      </trkpt>
      <trkpt lat="47.616856" lon="13.451043">
        <time>1970-01-01T00:00:00+00:00</time>
        <ele>1206.0</ele>
      </trkpt>
      <trkpt lat="47.616772" lon="13.451314">
        <time>1970-01-01T00:00:00+00:00</time>
        <ele>1208.0</ele>
      </trkpt>
      <trkpt lat="47.616723" lon="13.451422">
        <time>1970-01-01T00:00:00+00:00</time>
        <ele>1208.0</ele>
      </trkpt>
      <trkpt lat="47.616478" lon="13.45174">
        <time>1970-01-01T00:00:00+00:00</time>
        <ele>1199.0</ele>
      </trkpt>
      <trkpt lat="47.616377" lon="13.452097">
        <time>1970-01-01T00:00:00+00:00</time>
        <ele>1199.0</ele>
      </trkpt>
      <trkpt lat="47.616311" lon="13.452235">
        <time>1970-01-01T00:00:00+00:00</time>
        <ele>1198.0</ele>
      </trkpt>
      <trkpt lat="47.616177" lon="13.452412">
        <time>1970-01-01T00:00:00+00:00</time>
        <ele>1195.0</ele>
      </trkpt>
      <trkpt lat="47.616107" lon="13.45257">
        <time>1970-01-01T00:00:00+00:00</time>
        <ele>1195.0</ele>
      </trkpt>
      <trkpt lat="47.615987" lon="13.452738">
        <time>1970-01-01T00:00:00+00:00</time>
        <ele>1193.0</ele>
      </trkpt>
      <trkpt lat="47.615678" lon="13.453011">
        <time>1970-01-01T00:00:00+00:00</time>
        <ele>1185.0</ele>
      </trkpt>
      <trkpt lat="47.615432" lon="13.453272">
        <time>1970-01-01T00:00:00+00:00</time>
        <ele>1182.0</ele>
      </trkpt>
      <trkpt lat="47.615393" lon="13.453285">
        <time>1970-01-01T00:00:00+00:00</time>
        <ele>1182.0</ele>
      </trkpt>
      <trkpt lat="47.615356" lon="13.453267">
        <time>1970-01-01T00:00:00+00:00</time>
        <ele>1181.0</ele>
      </trkpt>
      <trkpt lat="47.615338" lon="13.453219">
        <time>1970-01-01T00:00:00+00:00</time>
        <ele>1180.0</ele>
      </trkpt>
      <trkpt lat="47.615338" lon="13.453149">
        <time>1970-01-01T00:00:00+00:00</time>
        <ele>1179.0</ele>
      </trkpt>
      <trkpt lat="47.615434" lon="13.452879">
        <time>1970-01-01T00:00:00+00:00</time>
        <ele>1177.0</ele>
      </trkpt>
      <trkpt lat="47.615565" lon="13.452635">
        <time>1970-01-01T00:00:00+00:00</time>
        <ele>1177.0</ele>
      </trkpt>
      <trkpt lat="47.615695" lon="13.45182">
        <time>1970-01-01T00:00:00+00:00</time>
        <ele>1165.0</ele>
      </trkpt>
      <trkpt lat="47.615687" lon="13.451756">
        <time>1970-01-01T00:00:00+00:00</time>
        <ele>1164.0</ele>
      </trkpt>
      <trkpt lat="47.615656" lon="13.451708">
        <time>1970-01-01T00:00:00+00:00</time>
        <ele>1162.0</ele>
      </trkpt>
      <trkpt lat="47.615617" lon="13.4517">
        <time>1970-01-01T00:00:00+00:00</time>
        <ele>1161.0</ele>
      </trkpt>
      <trkpt lat="47.615569" lon="13.451749">
        <time>1970-01-01T00:00:00+00:00</time>
        <ele>1160.0</ele>
      </trkpt>
      <trkpt lat="47.615483" lon="13.451913">
        <time>1970-01-01T00:00:00+00:00</time>
        <ele>1161.0</ele>
      </trkpt>
      <trkpt lat="47.61538" lon="13.452022">
        <time>1970-01-01T00:00:00+00:00</time>
        <ele>1161.0</ele>
      </trkpt>
      <trkpt lat="47.615047" lon="13.4522">
        <time>1970-01-01T00:00:00+00:00</time>
        <ele>1156.0</ele>
      </trkpt>
      <trkpt lat="47.614828" lon="13.452422">
        <time>1970-01-01T00:00:00+00:00</time>
        <ele>1154.0</ele>
      </trkpt>
      <trkpt lat="47.614466" lon="13.452857">
        <time>1970-01-01T00:00:00+00:00</time>
        <ele>1149.0</ele>
      </trkpt>
      <trkpt lat="47.614239" lon="13.452966">
        <time>1970-01-01T00:00:00+00:00</time>
        <ele>1144.0</ele>
      </trkpt>
      <trkpt lat="47.614045" lon="13.453174">
        <time>1970-01-01T00:00:00+00:00</time>
        <ele>1143.0</ele>
      </trkpt>
      <trkpt lat="47.613684" lon="13.453328">
        <time>1970-01-01T00:00:00+00:00</time>
        <ele>1135.0</ele>
      </trkpt>
      <trkpt lat="47.613417" lon="13.453619">
        <time>1970-01-01T00:00:00+00:00</time>
        <ele>1130.0</ele>
      </trkpt>
      <trkpt lat="47.613132" lon="13.453811">
        <time>1970-01-01T00:00:00+00:00</time>
        <ele>1125.0</ele>
      </trkpt>
      <trkpt lat="47.612824" lon="13.453968">
        <time>1970-01-01T00:00:00+00:00</time>
        <ele>1121.0</ele>
      </trkpt>
      <trkpt lat="47.612425" lon="13.454271">
        <time>1970-01-01T00:00:00+00:00</time>
        <ele>1118.0</ele>
      </trkpt>
      <trkpt lat="47.612075" lon="13.454482">
        <time>1970-01-01T00:00:00+00:00</time>
        <ele>1113.0</ele>
      </trkpt>
      <trkpt lat="47.611612" lon="13.454431">
        <time>1970-01-01T00:00:00+00:00</time>
        <ele>1108.0</ele>
      </trkpt>
      <trkpt lat="47.611081" lon="13.454223">
        <time>1970-01-01T00:00:00+00:00</time>
        <ele>1102.0</ele>
      </trkpt>
      <trkpt lat="47.610957" lon="13.454228">
        <time>1970-01-01T00:00:00+00:00</time>
        <ele>1099.0</ele>
      </trkpt>
      <trkpt lat="47.610448" lon="13.454397">
        <time>1970-01-01T00:00:00+00:00</time>
        <ele>1089.0</ele>
      </trkpt>
      <trkpt lat="47.610173" lon="13.454625">
        <time>1970-01-01T00:00:00+00:00</time>
        <ele>1085.0</ele>
      </trkpt>
      <trkpt lat="47.609893" lon="13.454743">
        <time>1970-01-01T00:00:00+00:00</time>
        <ele>1080.0</ele>
      </trkpt>
      <trkpt lat="47.609745" lon="13.454884">
        <time>1970-01-01T00:00:00+00:00</time>
        <ele>1079.0</ele>
      </trkpt>
      <trkpt lat="47.609705" lon="13.454896">
        <time>1970-01-01T00:00:00+00:00</time>
        <ele>1078.0</ele>
      </trkpt>
      <trkpt lat="47.609679" lon="13.454878">
        <time>1970-01-01T00:00:00+00:00</time>
        <ele>1076.0</ele>
      </trkpt>
      <trkpt lat="47.609671" lon="13.454824">
        <time>1970-01-01T00:00:00+00:00</time>
        <ele>1075.0</ele>
      </trkpt>
      <trkpt lat="47.60969" lon="13.454782">
        <time>1970-01-01T00:00:00+00:00</time>
        <ele>1074.0</ele>
      </trkpt>
      <trkpt lat="47.609883" lon="13.454532">
        <time>1970-01-01T00:00:00+00:00</time>
        <ele>1074.0</ele>
      </trkpt>
      <trkpt lat="47.610031" lon="13.45422">
        <time>1970-01-01T00:00:00+00:00</time>
        <ele>1070.0</ele>
      </trkpt>
      <trkpt lat="47.610031" lon="13.454119">
        <time>1970-01-01T00:00:00+00:00</time>
        <ele>1067.0</ele>
      </trkpt>
      <trkpt lat="47.610012" lon="13.454045">
        <time>1970-01-01T00:00:00+00:00</time>
        <ele>1065.0</ele>
      </trkpt>
      <trkpt lat="47.609955" lon="13.454016">
        <time>1970-01-01T00:00:00+00:00</time>
        <ele>1063.0</ele>
      </trkpt>
      <trkpt lat="47.609893" lon="13.454033">
        <time>1970-01-01T00:00:00+00:00</time>
        <ele>1062.0</ele>
      </trkpt>
      <trkpt lat="47.609733" lon="13.454227">
        <time>1970-01-01T00:00:00+00:00</time>
        <ele>1064.0</ele>
      </trkpt>
      <trkpt lat="47.609608" lon="13.454305">
        <time>1970-01-01T00:00:00+00:00</time>
        <ele>1063.0</ele>
      </trkpt>
      <trkpt lat="47.609159" lon="13.454459">
        <time>1970-01-01T00:00:00+00:00</time>
        <ele>1055.0</ele>
      </trkpt>
      <trkpt lat="47.608795" lon="13.454798">
        <time>1970-01-01T00:00:00+00:00</time>
        <ele>1052.0</ele>
      </trkpt>
      <trkpt lat="47.608594" lon="13.454773">
        <time>1970-01-01T00:00:00+00:00</time>
        <ele>1049.0</ele>
      </trkpt>
      <trkpt lat="47.608365" lon="13.455036">
        <time>1970-01-01T00:00:00+00:00</time>
        <ele>1057.0</ele>
      </trkpt>
      <trkpt lat="47.606331" lon="13.455626">
        <time>1970-01-01T00:00:00+00:00</time>
        <ele>1056.0</ele>
      </trkpt>
      <trkpt lat="47.606097" lon="13.45606">
        <time>1970-01-01T00:00:00+00:00</time>
        <ele>1072.0</ele>
      </trkpt>
      <trkpt lat="47.605797" lon="13.455993">
        <time>1970-01-01T00:00:00+00:00</time>
        <ele>1065.0</ele>
      </trkpt>
      <trkpt lat="47.605664" lon="13.456016">
        <time>1970-01-01T00:00:00+00:00</time>
        <ele>1062.0</ele>
      </trkpt>
      <trkpt lat="47.605134" lon="13.456208">
        <time>1970-01-01T00:00:00+00:00</time>
        <ele>1048.0</ele>
      </trkpt>
      <trkpt lat="47.604865" lon="13.456374">
        <time>1970-01-01T00:00:00+00:00</time>
        <ele>1043.0</ele>
      </trkpt>
      <trkpt lat="47.604509" lon="13.45688">
        <time>1970-01-01T00:00:00+00:00</time>
        <ele>1037.0</ele>
      </trkpt>
      <trkpt lat="47.604183" lon="13.457483">
        <time>1970-01-01T00:00:00+00:00</time>
        <ele>1031.0</ele>
      </trkpt>
      <trkpt lat="47.603835" lon="13.457901">
        <time>1970-01-01T00:00:00+00:00</time>
        <ele>1021.0</ele>
      </trkpt>
      <trkpt lat="47.603427" lon="13.45829">
        <time>1970-01-01T00:00:00+00:00</time>
        <ele>1010.0</ele>
      </trkpt>
      <trkpt lat="47.603355" lon="13.458351">
        <time>1970-01-01T00:00:00+00:00</time>
        <ele>1007.0</ele>
      </trkpt>
      <trkpt lat="47.603151" lon="13.458597">
        <time>1970-01-01T00:00:00+00:00</time>
        <ele>1003.0</ele>
      </trkpt>
      <trkpt lat="47.603074" lon="13.458769">
        <time>1970-01-01T00:00:00+00:00</time>
        <ele>1005.0</ele>
      </trkpt>
      <trkpt lat="47.602975" lon="13.458904">
        <time>1970-01-01T00:00:00+00:00</time>
        <ele>1002.0</ele>
      </trkpt>
      <trkpt lat="47.602869" lon="13.458983">
        <time>1970-01-01T00:00:00+00:00</time>
        <ele>997.0</ele>
      </trkpt>
      <trkpt lat="47.602757" lon="13.459026">
        <time>1970-01-01T00:00:00+00:00</time>
        <ele>990.0</ele>
      </trkpt>
      <trkpt lat="47.602629" lon="13.459365">
        <time>1970-01-01T00:00:00+00:00</time>
        <ele>985.0</ele>
      </trkpt>
      <trkpt lat="47.602633" lon="13.459506">
        <time>1970-01-01T00:00:00+00:00</time>
        <ele>986.0</ele>
      </trkpt>
      <trkpt lat="47.602601" lon="13.459646">
        <time>1970-01-01T00:00:00+00:00</time>
        <ele>986.0</ele>
      </trkpt>
      <trkpt lat="47.602474" lon="13.459832">
        <time>1970-01-01T00:00:00+00:00</time>
        <ele>980.0</ele>
      </trkpt>
      <trkpt lat="47.6024" lon="13.459926">
        <time>1970-01-01T00:00:00+00:00</time>
        <ele>977.0</ele>
      </trkpt>
      <trkpt lat="47.602297" lon="13.459991">
        <time>1970-01-01T00:00:00+00:00</time>
        <ele>973.0</ele>
      </trkpt>
      <trkpt lat="47.602211" lon="13.460017">
        <time>1970-01-01T00:00:00+00:00</time>
        <ele>970.0</ele>
      </trkpt>
      <trkpt lat="47.602054" lon="13.460192">
        <time>1970-01-01T00:00:00+00:00</time>
        <ele>964.0</ele>
      </trkpt>
      <trkpt lat="47.601889" lon="13.460285">
        <time>1970-01-01T00:00:00+00:00</time>
        <ele>956.0</ele>
      </trkpt>
      <trkpt lat="47.601818" lon="13.460386">
        <time>1970-01-01T00:00:00+00:00</time>
        <ele>952.0</ele>
      </trkpt>
      <trkpt lat="47.60177" lon="13.460698">
        <time>1970-01-01T00:00:00+00:00</time>
        <ele>953.0</ele>
      </trkpt>
      <trkpt lat="47.601703" lon="13.460819">
        <time>1970-01-01T00:00:00+00:00</time>
        <ele>951.0</ele>
      </trkpt>
      <trkpt lat="47.601665" lon="13.46095">
        <time>1970-01-01T00:00:00+00:00</time>
        <ele>950.0</ele>
      </trkpt>
      <trkpt lat="47.601479" lon="13.461128">
        <time>1970-01-01T00:00:00+00:00</time>
        <ele>940.0</ele>
      </trkpt>
      <trkpt lat="47.601446" lon="13.461247">
        <time>1970-01-01T00:00:00+00:00</time>
        <ele>940.0</ele>
      </trkpt>
      <trkpt lat="47.601406" lon="13.461495">
        <time>1970-01-01T00:00:00+00:00</time>
        <ele>939.0</ele>
      </trkpt>
      <trkpt lat="47.601309" lon="13.461678">
        <time>1970-01-01T00:00:00+00:00</time>
        <ele>937.0</ele>
      </trkpt>
      <trkpt lat="47.601118" lon="13.461876">
        <time>1970-01-01T00:00:00+00:00</time>
        <ele>932.0</ele>
      </trkpt>
      <trkpt lat="47.600759" lon="13.462186">
        <time>1970-01-01T00:00:00+00:00</time>
        <ele>920.0</ele>
      </trkpt>
      <trkpt lat="47.600645" lon="13.462354">
        <time>1970-01-01T00:00:00+00:00</time>
        <ele>921.0</ele>
      </trkpt>
      <trkpt lat="47.600508" lon="13.462468">
        <time>1970-01-01T00:00:00+00:00</time>
        <ele>922.0</ele>
      </trkpt>
      <trkpt lat="47.600424" lon="13.462808">
        <time>1970-01-01T00:00:00+00:00</time>
        <ele>929.0</ele>
      </trkpt>
      <trkpt lat="47.600294" lon="13.46306">
        <time>1970-01-01T00:00:00+00:00</time>
        <ele>928.0</ele>
      </trkpt>
      <trkpt lat="47.600132" lon="13.463221">
        <time>1970-01-01T00:00:00+00:00</time>
        <ele>922.0</ele>
      </trkpt>
      <trkpt lat="47.599916" lon="13.463284">
        <time>1970-01-01T00:00:00+00:00</time>
        <ele>914.0</ele>
      </trkpt>
      <trkpt lat="47.59972" lon="13.46347">
        <time>1970-01-01T00:00:00+00:00</time>
        <ele>907.0</ele>
      </trkpt>
      <trkpt lat="47.599609" lon="13.463667">
        <time>1970-01-01T00:00:00+00:00</time>
        <ele>904.0</ele>
      </trkpt>
      <trkpt lat="47.599554" lon="13.463944">
        <time>1970-01-01T00:00:00+00:00</time>
        <ele>905.0</ele>
      </trkpt>
      <trkpt lat="47.599427" lon="13.464278">
        <time>1970-01-01T00:00:00+00:00</time>
        <ele>904.0</ele>
      </trkpt>
      <trkpt lat="47.599312" lon="13.464422">
        <time>1970-01-01T00:00:00+00:00</time>
        <ele>902.0</ele>
      </trkpt>
      <trkpt lat="47.599142" lon="13.464558">
        <time>1970-01-01T00:00:00+00:00</time>
        <ele>896.0</ele>
      </trkpt>
      <trkpt lat="47.599013" lon="13.464728">
        <time>1970-01-01T00:00:00+00:00</time>
        <ele>890.0</ele>
      </trkpt>
      <trkpt lat="47.598784" lon="13.4651">
        <time>1970-01-01T00:00:00+00:00</time>
        <ele>883.0</ele>
      </trkpt>
      <trkpt lat="47.598755" lon="13.465179">
        <time>1970-01-01T00:00:00+00:00</time>
        <ele>882.0</ele>
      </trkpt>
      <trkpt lat="47.598751" lon="13.465248">
        <time>1970-01-01T00:00:00+00:00</time>
        <ele>882.0</ele>
      </trkpt>
      <trkpt lat="47.598777" lon="13.465376">
        <time>1970-01-01T00:00:00+00:00</time>
        <ele>883.0</ele>
      </trkpt>
      <trkpt lat="47.598778" lon="13.465628">
        <time>1970-01-01T00:00:00+00:00</time>
        <ele>882.0</ele>
      </trkpt>
      <trkpt lat="47.598611" lon="13.465593">
        <time>1970-01-01T00:00:00+00:00</time>
        <ele>878.0</ele>
      </trkpt>
      <trkpt lat="47.598459" lon="13.465489">
        <time>1970-01-01T00:00:00+00:00</time>
        <ele>876.0</ele>
      </trkpt>
      <trkpt lat="47.598412" lon="13.465424">
        <time>1970-01-01T00:00:00+00:00</time>
        <ele>875.0</ele>
      </trkpt>
      <trkpt lat="47.598403" lon="13.46532">
        <time>1970-01-01T00:00:00+00:00</time>
        <ele>875.0</ele>
      </trkpt>
      <trkpt lat="47.598591" lon="13.464889">
        <time>1970-01-01T00:00:00+00:00</time>
        <ele>876.0</ele>
      </trkpt>
      <trkpt lat="47.598658" lon="13.464663">
        <time>1970-01-01T00:00:00+00:00</time>
        <ele>876.0</ele>
      </trkpt>
      <trkpt lat="47.598711" lon="13.464303">
        <time>1970-01-01T00:00:00+00:00</time>
        <ele>873.0</ele>
      </trkpt>
      <trkpt lat="47.59879" lon="13.464029">
        <time>1970-01-01T00:00:00+00:00</time>
        <ele>874.0</ele>
      </trkpt>
      <trkpt lat="47.598857" lon="13.463925">
        <time>1970-01-01T00:00:00+00:00</time>
        <ele>876.0</ele>
      </trkpt>
      <trkpt lat="47.598934" lon="13.463755">
        <time>1970-01-01T00:00:00+00:00</time>
        <ele>878.0</ele>
      </trkpt>
      <trkpt lat="47.598942" lon="13.463684">
        <time>1970-01-01T00:00:00+00:00</time>
        <ele>878.0</ele>
      </trkpt>
      <trkpt lat="47.598922" lon="13.463616">
        <time>1970-01-01T00:00:00+00:00</time>
        <ele>878.0</ele>
      </trkpt>
      <trkpt lat="47.598778" lon="13.463781">
        <time>1970-01-01T00:00:00+00:00</time>
        <ele>874.0</ele>
      </trkpt>
      <trkpt lat="47.598749" lon="13.463827">
        <time>1970-01-01T00:00:00+00:00</time>
        <ele>873.0</ele>
      </trkpt>
    </trkseg>
  </trk>
</gpx>
